Home > Weather > Aurich > Past weeks

Flag for Germany Past Weather in Aurich, Lower Saxony, Germany — Yesterday and Last 2 Weeks

Now
72 °F

Mild.


Feels Like: 71 °F
Forecast: 58 / 72 °F
Wind: 7 mph from North

Location: Wittmundhaven

Current Time: Jul 24, 2016 at 8:38:32 PM

Latest Report: Jul 24, 2016 at 7:20 PM


Visibility: 3 mi

Pressure: 30.07 "Hg

Humidity: 83%

Dew Point: 66 °F

Location of AurichLocation

Past Weather in Aurich — Graph

°F

Aurich Temperature Yesterday

Maximum temperature yesterday: 75 °F (at 2:20 PM)
Minimum temperature yesterday: 63 °F (at 12:20 AM)
Average temperature yesterday: 67 °F

High & Low Weather Summary for the Past Weeks

 TemperatureHumidityPressure
High88 °F (Jul 20, 4:20 PM)100% (Jul 10, 12:20 AM)30.24 "Hg (Jul 10, 12:20 AM)
Low50 °F (Jul 14, 3:20 AM)40% (Jul 20, 6:20 PM)29.68 "Hg (Jul 11, 2:20 AM)
Average65 °F81%30.01 "Hg
* Reported Jul 9 7:20 PM — Jul 24 7:20 PM, Aurich, Weather by CustomWeather, © 2016

Note: Actual official high and low records may vary slightly from our data, if they occured in-between our weather recording intervals... More about our weather records

Advertising

Aurich Weather History for the Previous 24 Hours

Scroll right to see more
 ConditionsComfort  
Time TempWeatherWind HumidityBarometerVisibility
7:20 PM
Sun, Jul 24
72 °FMild.7 mph83%30.07 "Hg2 mi
6:20 PM73 °FMild.8 mph83%30.07 "Hg3 mi
5:20 PM79 °FWarm.2 mph65%30.07 "Hg3 mi
4:20 PM75 °FMild.3 mph74%30.09 "Hg3 mi
3:20 PM75 °FMild.2 mph74%30.09 "Hg2 mi
2:20 PM75 °FMild.3 mph74%30.09 "Hg2 mi
1:20 PM72 °FMild.2 mph78%30.09 "Hg2 mi
12:20 PM68 °FMild.2 mph94%30.09 "Hg2 mi
11:20 AM66 °FMild.3 mph94%30.12 "Hg2 mi
10:20 AM64 °FMild.6 mph100%30.09 "Hg2 mi
9:20 AM64 °FMild.1 mph100%30.09 "Hg2 mi
8:20 AM63 °FMild.2 mph100%30.09 "Hg1 mi
7:20 AM63 °FMild.6 mph100%30.09 "Hg0 mi
6:20 AM63 °FMild.1 mph100%30.09 "Hg0 mi
5:20 AM63 °FMild.2 mph100%30.09 "Hg0 mi
4:20 AM63 °FMild.3 mph100%30.09 "Hg0 mi
3:20 AM63 °FMild.2 mph100%30.12 "Hg0 mi
2:20 AM63 °FMild.5 mph100%30.12 "Hg0 mi
1:20 AM63 °FMild.3 mph100%30.12 "Hg0 mi
12:20 AM63 °FMild.3 mph100%30.12 "Hg0 mi
11:20 PM
Sat, Jul 23
64 °FMild.5 mph94%30.09 "Hg0 mi
10:20 PM64 °FMild.5 mph100%30.09 "Hg1 mi
9:20 PM66 °FMild.7 mph94%30.09 "Hg1 mi
8:20 PM66 °FMild.5 mph100%30.09 "Hg1 mi
Weather by CustomWeather, © 2016

See weather overviewHow to use our weather pages